• In United Kingdom
  • List of Countries
  • For 7 days
  • Water Temperature
  • Satellite Maps
  • Weather Map
  • Weather Widgets
  • user-avatar
    Login

    Hourly Weather Udzierz

    Today, 18 September, Tuesday

    Time Temperature Precipitation Wind Pressure Humidity
    00:00 +16°C° 0 mm 2 mps 756 mmHg 67%
    01:00 +16°C° 0 mm 2 mps 756 mmHg 67%
    02:00 +15°C° 0 mm 2 mps 756 mmHg 68%
    03:00 +15°C° 0 mm 2 mps 756 mmHg 68%
    04:00 +15°C° 0 mm 2 mps 756 mmHg 68%
    05:00 +16°C° 0 mm 2 mps 756 mmHg 68%
    06:00 +16°C° 0 mm 2 mps 756 mmHg 68%
    07:00 +17°C° 0 mm 2 mps 756 mmHg 66%
    08:00 +19°C° 0 mm 2 mps 756 mmHg 60%
    09:00 +21°C° 0 mm 3 mps 756 mmHg 55%
    10:00 +24°C° 0 mm 3 mps 756 mmHg 49%
    11:00 +25°C° 0 mm 3 mps 756 mmHg 46%
    12:00 +26°C° 0 mm 4 mps 755 mmHg 42%
    13:00 +27°C° 0 mm 4 mps 755 mmHg 39%
    14:00 +27°C° 0 mm 4 mps 755 mmHg 41%
    15:00 +27°C° 0 mm 3 mps 754 mmHg 43%
    16:00 +27°C° 0 mm 3 mps 754 mmHg 44%
    17:00 +25°C° 0 mm 3 mps 754 mmHg 50%
    18:00 +22°C° 0 mm 3 mps 754 mmHg 56%
    19:00 +20°C° 0 mm 2 mps 754 mmHg 62%
    20:00 +20°C° 0 mm 2 mps 754 mmHg 64%
    21:00 +19°C° 0 mm 2 mps 754 mmHg 66%
    22:00 +19°C° 0 mm 2 mps 754 mmHg 68%
    23:00 +18°C° 0 mm 3 mps 754 mmHg 71%

    Tomorrow, 19 September, Wednesday

    Time Temperature Precipitation Wind Pressure Humidity
    00:00 +18°C° 0 mm 3 mps 754 mmHg 74%
    01:00 +18°C° 0 mm 3 mps 754 mmHg 76%
    02:00 +17°C° 0 mm 3 mps 754 mmHg 78%
    03:00 +17°C° 0 mm 3 mps 754 mmHg 79%
    04:00 +17°C° 0 mm 3 mps 754 mmHg 81%
    05:00 +17°C° 0 mm 3 mps 754 mmHg 79%
    06:00 +18°C° 0 mm 3 mps 754 mmHg 77%
    07:00 +18°C° 0 mm 3 mps 754 mmHg 75%
    08:00 +20°C° 0 mm 3 mps 755 mmHg 69%
    09:00 +22°C° 0 mm 3 mps 755 mmHg 62%
    10:00 +25°C° 0 mm 3 mps 755 mmHg 56%
    11:00 +26°C° 0 mm 3 mps 755 mmHg 52%
    12:00 +27°C° 0 mm 3 mps 755 mmHg 48%
    13:00 +29°C° 0 mm 3 mps 756 mmHg 45%
    14:00 +28°C° 0 mm 3 mps 756 mmHg 46%
    15:00 +28°C° 0 mm 2 mps 756 mmHg 47%
    16:00 +27°C° 0 mm 2 mps 756 mmHg 48%
    17:00 +25°C° 0 mm 2 mps 756 mmHg 54%
    18:00 +23°C° 0 mm 2 mps 756 mmHg 61%
    19:00 +22°C° 0 mm 1 mps 756 mmHg 67%
    20:00 +21°C° 0 mm 1 mps 756 mmHg 69%
    21:00 +20°C° 0 mm 1 mps 756 mmHg 71%
    22:00 +20°C° 0 mm 1 mps 756 mmHg 73%
    23:00 +20°C° 0 mm 1 mps 756 mmHg 72%

    Day after tomorrow, 20 September, Thursday

    Time Temperature Precipitation Wind Pressure Humidity
    00:00 +20°C° 0 mm 1 mps 756 mmHg 72%
    01:00 +19°C° 0 mm 2 mps 756 mmHg 72%
    02:00 +18°C° 0 mm 2 mps 755 mmHg 73%
    03:00 +18°C° 0 mm 2 mps 755 mmHg 74%
    04:00 +18°C° 0 mm 2 mps 755 mmHg 75%
    05:00 +19°C° 0 mm 3 mps 755 mmHg 75%
    06:00 +19°C° 0 mm 3 mps 755 mmHg 74%
    07:00 +20°C° 0 mm 3 mps 755 mmHg 74%
    08:00 +22°C° 0 mm 3 mps 755 mmHg 68%
    09:00 +25°C° 0 mm 4 mps 755 mmHg 61%
    10:00 +27°C° 0 mm 4 mps 755 mmHg 55%
    11:00 +28°C° 0 mm 4 mps 755 mmHg 51%
    12:00 +29°C° 0 mm 4 mps 755 mmHg 48%
    13:00 +30°C° 0 mm 5 mps 755 mmHg 45%
    14:00 +29°C° 0 mm 4 mps 755 mmHg 46%
    15:00 +29°C° 0 mm 4 mps 754 mmHg 47%
    16:00 +29°C° 0 mm 4 mps 754 mmHg 48%
    17:00 +27°C° 0 mm 3 mps 754 mmHg 54%
    18:00 +25°C° 0 mm 2 mps 754 mmHg 61%
    19:00 +23°C° 0 mm 2 mps 754 mmHg 67%
    20:00 +23°C° 0 mm 2 mps 754 mmHg 69%
    21:00 +21°C° 0 mm 2 mps 753 mmHg 71%
    22:00 +20°C° 0 mm 2 mps 753 mmHg 73%
    23:00 +20°C° 0 mm 2 mps 753 mmHg 73%

    21 September, Friday

    Time Temperature Precipitation Wind Pressure Humidity
    00:00 +20°C° 0 mm 2 mps 753 mmHg 73%
    01:00 +20°C° 0 mm 3 mps 752 mmHg 73%
    02:00 +19°C° 0 mm 3 mps 752 mmHg 72%
    03:00 +19°C° 0 mm 3 mps 752 mmHg 72%
    04:00 +19°C° 0 mm 3 mps 751 mmHg 71%
    05:00 +20°C° 0 mm 4 mps 751 mmHg 69%
    06:00 +20°C° 0 mm 4 mps 751 mmHg 68%
    07:00 +20°C° 0 mm 5 mps 751 mmHg 66%
    08:00 +22°C° 0 mm 5 mps 750 mmHg 61%
    09:00 +24°C° 0 mm 6 mps 750 mmHg 56%
    10:00 +27°C° 0 mm 7 mps 749 mmHg 50%
    11:00 +28°C° 0 mm 7 mps 749 mmHg 46%
    12:00 +29°C° 0 mm 7 mps 748 mmHg 42%
    13:00 +31°C° 0 mm 8 mps 747 mmHg 38%
    14:00 +29°C° 0 mm 7 mps 747 mmHg 38%
    15:00 +29°C° 0 mm 6 mps 746 mmHg 39%
    16:00 +28°C° 0 mm 6 mps 745 mmHg 40%
    17:00 +27°C° 0.1 mm 6 mps 745 mmHg 42%
    18:00 +27°C° 0.1 mm 6 mps 745 mmHg 45%
    19:00 +26°C° 0.1 mm 6 mps 745 mmHg 47%
    20:00 +23°C° 0.4 mm 6 mps 745 mmHg 56%
    21:00 +21°C° 0.4 mm 6 mps 745 mmHg 66%
    22:00 +19°C° 0.4 mm 6 mps 746 mmHg 75%
    23:00 +16°C° 1.1 mm 5 mps 747 mmHg 78%

    22 September, Saturday

    Time Temperature Precipitation Wind Pressure Humidity
    00:00 +14°C° 1.1 mm 5 mps 747 mmHg 81%
    01:00 +13°C° 1.1 mm 4 mps 748 mmHg 84%
    02:00 +12°C° 1 mm 4 mps 748 mmHg 84%
    03:00 +12°C° 1 mm 5 mps 749 mmHg 83%
    04:00 +12°C° 1 mm 5 mps 750 mmHg 82%
    05:00 +12°C° 0.2 mm 5 mps 751 mmHg 81%
    06:00 +10°C° 0.2 mm 6 mps 751 mmHg 80%
    07:00 +10°C° 0.2 mm 6 mps 752 mmHg 79%
    08:00 +11°C° 0 mm 6 mps 752 mmHg 76%
    09:00 +11°C° 0 mm 6 mps 753 mmHg 72%
    10:00 +11°C° 0 mm 6 mps 753 mmHg 69%
    11:00 +13°C° 0.1 mm 6 mps 754 mmHg 63%
    12:00 +14°C° 0.1 mm 6 mps 754 mmHg 58%
    13:00 +15°C° 0.1 mm 6 mps 754 mmHg 52%
    14:00 +15°C° 0.1 mm 6 mps 754 mmHg 52%
    15:00 +15°C° 0.1 mm 6 mps 754 mmHg 51%
    16:00 +15°C° 0.1 mm 5 mps 754 mmHg 51%
    17:00 +14°C° 0 mm 5 mps 755 mmHg 56%
    18:00 +13°C° 0 mm 4 mps 755 mmHg 61%
    19:00 +11°C° 0 mm 3 mps 755 mmHg 66%
    20:00 +11°C° 0 mm 3 mps 755 mmHg 68%
    21:00 +11°C° 0 mm 3 mps 755 mmHg 70%
    22:00 +10°C° 0 mm 4 mps 755 mmHg 72%
    23:00 +10°C° 0 mm 4 mps 755 mmHg 74%

    23 September, Sunday

    Time Temperature Precipitation Wind Pressure Humidity
    00:00 +10°C° 0 mm 4 mps 755 mmHg 75%
    01:00 +10°C° 0 mm 4 mps 755 mmHg 77%
    02:00 +8°C° 0 mm 4 mps 755 mmHg 79%
    03:00 +9°C° 0 mm 3 mps 755 mmHg 82%
    04:00 +8°C° 0 mm 3 mps 756 mmHg 84%
    05:00 +9°C° 0 mm 3 mps 756 mmHg 83%
    06:00 +8°C° 0 mm 4 mps 755 mmHg 82%
    07:00 +8°C° 0 mm 4 mps 755 mmHg 82%
    08:00 +11°C° 0 mm 4 mps 755 mmHg 74%
    09:00 +12°C° 0 mm 4 mps 755 mmHg 66%
    10:00 +14°C° 0 mm 4 mps 755 mmHg 58%
    11:00 +14°C° 0 mm 4 mps 755 mmHg 54%
    12:00 +15°C° 0 mm 4 mps 754 mmHg 49%
    13:00 +17°C° 0 mm 4 mps 753 mmHg 45%
    14:00 +17°C° 0 mm 4 mps 753 mmHg 46%
    15:00 +15°C° 0 mm 4 mps 752 mmHg 47%
    16:00 +15°C° 0 mm 4 mps 751 mmHg 48%
    17:00 +15°C° 0.1 mm 5 mps 750 mmHg 51%
    18:00 +14°C° 0.1 mm 5 mps 749 mmHg 54%
    19:00 +13°C° 0.1 mm 6 mps 748 mmHg 57%
    20:00 +13°C° 1.9 mm 6 mps 747 mmHg 65%
    21:00 +11°C° 1.9 mm 7 mps 746 mmHg 74%
    22:00 +10°C° 1.9 mm 7 mps 745 mmHg 82%
    23:00 +10°C° 0.6 mm 8 mps 743 mmHg 82%
    Show more